(282087) = 2000 QW59 = 2004 TX145

Discovered at Socorro on 2000-08-26 by LINEAR.

Orbit

Orbit type: Main Belt

Note: WebGL enabled browser required.

epoch2023-09-13.0
epoch JD2460200.5
perihelion date2023-08-28.71981
perihelion JD2460185.21981
argument of perihelion (°)204.94113
ascending node (°)140.83777
inclination (°)2.60766
eccentricity0.1925709
perihelion distance (AU)1.9728820
Tisserand w.r.t. Jupiter3.5
ΔV w.r.t. Earth (km/sec)8.8
semimajor axis (AU)2.4434121
mean anomaly (°)3.94310
mean daily motion (°/day)0.25805290
aphelion distance (AU)2.914
period (years)3.82
P-vector [x]0.96907917
P-vector [y]-0.21807188
P-vector [z]-0.11545654
Q-vector [x]0.24507149
Q-vector [y]0.90510756
Q-vector [z]0.34744822
absolute magnitude17.71
phase slope0.15
uncertainty0
referenceMPEC 2024-A55
observations used336
oppositions13
arc length (days)8485
first opposition used2000
last opposition used2023
residual rms (arc-secs)0.58
perturbers coarse indicatorM-v
perturbers precise indicator003Ek
first observation date used2000-08-20.0
last observation date used2023-11-13.0
computer nameMPCLINUX
JD of orbit computation2456731.511835
perihelion JD uncertainty (days)1.8123E-04
argument of perihelion uncertainty (°)1.6080E-04
ascending node uncertainty (°)1.5701E-04
inclination uncertainty (°)5.6647E-06
eccentricity uncertainty 9.0235E-08
perihelion distance uncertainty (AU)2.0316E-07
Minimum Orbit Intersection Distances (in AU)
for orbit epoch: 2460200.5, reference: E2023-VO2
Mercury1.5862
Venus1.24643
Earth0.96532
Mars0.58871
Jupiter2.48664
Saturn6.36472
Uranus15.5324
Neptune27.5292

Observations

343 total observations over interval: 2000 08 20.30330 – 2023 11 13.260745
These data are available for download (format description).

Date (UT) J2000 RA J2000 Dec Magn Location Ref
2000 08 20.30330 22 33 15.42 -10 09 39.9 20.0 V 691 – Steward Observatory, Kitt Peak-Spacewatch MPS 27850
2000 08 20.33295 22 33 14.04 -10 09 51.6 20.0 V 691 – Steward Observatory, Kitt Peak-Spacewatch MPS 27850
2000 08 20.36282 22 33 12.61 -10 10 03.5 20.1 V 691 – Steward Observatory, Kitt Peak-Spacewatch MPS 27850
2000 08 26.28045 22 28 43.25 -10 49 56.1 19.5   704 – Lincoln Laboratory ETS, New Mexico MPS 18151
2000 08 26.30734 22 28 41.85 -10 50 07.2 19.6   704 – Lincoln Laboratory ETS, New Mexico MPS 18151
2000 08 26.32081 22 28 41.22 -10 50 12.3 19.1   704 – Lincoln Laboratory ETS, New Mexico MPS 18151
2000 08 29.28023 22 26 22.46 -11 10 10.1 18.8   704 – Lincoln Laboratory ETS, New Mexico MPS 18151
2000 08 29.29367 22 26 21.77 -11 10 14.3 19.5   704 – Lincoln Laboratory ETS, New Mexico MPS 18151
2000 08 29.30709 22 26 21.02 -11 10 22.2 19.4   704 – Lincoln Laboratory ETS, New Mexico MPS 18151
2000 08 29.32053 22 26 20.39 -11 10 26.0 19.0   704 – Lincoln Laboratory ETS, New Mexico MPS 18151
2000 08 29.33403 22 26 19.74 -11 10 31.1 19.1   704 – Lincoln Laboratory ETS, New Mexico MPS 18151
2003 04 07.38197 14 10 16.69 -09 12 28.1 21.5 V 291 – LPL/Spacewatch II MPS 118278
2003 04 07.40514 14 10 15.51 -09 12 19.6 22.7 V 291 – LPL/Spacewatch II MPS 118278
2003 04 07.42850 14 10 14.32 -09 12 12.3 22.3 V 291 – LPL/Spacewatch II MPS 118278
2004 10 05.18159 01 08 44.04 +02 48 09.7 19.7 V 691 – Steward Observatory, Kitt Peak-Spacewatch MPS 117858
2004 10 05.21006 01 08 42.55 +02 47 58.6 19.7 V 691 – Steward Observatory, Kitt Peak-Spacewatch MPS 117858
2004 10 05.23820 01 08 41.09 +02 47 47.9 19.7 V 691 – Steward Observatory, Kitt Peak-Spacewatch MPS 117858
2004 10 09.20355 01 05 22.52 +02 22 42.0 18.9   704 – Lincoln Laboratory ETS, New Mexico MPS 117858
2004 10 09.21451 01 05 21.91 +02 22 37.9 19.6   704 – Lincoln Laboratory ETS, New Mexico MPS 117858
2004 10 09.22550 01 05 21.25 +02 22 32.7 20.0   704 – Lincoln Laboratory ETS, New Mexico MPS 117858
2004 10 09.24763 01 05 20.22 +02 22 24.3 19.8   704 – Lincoln Laboratory ETS, New Mexico MPS 117858
2004 10 11.25357 01 03 39.82 +02 10 06.4 20.4 R 683 – Goodricke-Pigott Observatory, Tucson MPS 118582
2004 10 11.26694 01 03 38.89 +02 10 02.5 20.6 R 683 – Goodricke-Pigott Observatory, Tucson MPS 118582
2004 10 11.28032 01 03 38.37 +02 09 58.2 21.1 R 683 – Goodricke-Pigott Observatory, Tucson MPS 118582
2004 10 13.24695 01 02 00.69 +01 58 18.1 20.6 R 683 – Goodricke-Pigott Observatory, Tucson MPS 118582
2004 10 13.26033 01 02 00.02 +01 58 14.6 20.8 R 683 – Goodricke-Pigott Observatory, Tucson MPS 118582
2004 10 13.27369 01 01 59.12 +01 58 10.0 20.4 R 683 – Goodricke-Pigott Observatory, Tucson MPS 118582
2004 10 15.24037 01 00 23.54 +01 46 57.8 21.4 R 683 – Goodricke-Pigott Observatory, Tucson MPS 118582
2004 10 15.25375 01 00 22.63 +01 46 53.1 21.4 R 683 – Goodricke-Pigott Observatory, Tucson MPS 118582
2004 10 15.26713 01 00 22.07 +01 46 48.3 20.7 R 683 – Goodricke-Pigott Observatory, Tucson MPS 118582
2004 10 24.281867 00 53 41.698 +01 03 04.32 20.04 V 645 – Apache Point-Sloan Digital Sky Survey MPS 390529
2004 10 24.285339 00 53 41.546 +01 03 03.39 20.95   645 – Apache Point-Sloan Digital Sky Survey MPS 390529
2007 05 11.28747 15 07 29.13 -13 06 56.7 20.6 V G96 – Mt. Lemmon Survey MPS 208794
2007 05 11.29456 15 07 28.74 -13 06 54.3 20.6 V G96 – Mt. Lemmon Survey MPS 208794
2007 05 11.30164 15 07 28.27 -13 06 52.9 20.5 V G96 – Mt. Lemmon Survey MPS 208794
2007 05 11.30870 15 07 27.84 -13 06 50.8 20.6 V G96 – Mt. Lemmon Survey MPS 208794
2008 10 29.44917 03 33 32.79 +14 20 26.7 19.7 V G96 – Mt. Lemmon Survey MPS 261256
2008 10 29.45543 03 33 32.43 +14 20 25.1 19.9 V G96 – Mt. Lemmon Survey MPS 261256
2008 10 29.46175 03 33 32.11 +14 20 23.6 19.3 V G96 – Mt. Lemmon Survey MPS 261256
2008 10 29.46813 03 33 31.75 +14 20 22.3 19.5 V G96 – Mt. Lemmon Survey MPS 261256
2008 11 08.25760 03 24 07.41 +13 41 37.5 19.6 V G96 – Mt. Lemmon Survey MPS 264519
2008 11 08.26425 03 24 06.98 +13 41 36.0 19.6 V G96 – Mt. Lemmon Survey MPS 264519
2008 11 08.27088 03 24 06.58 +13 41 34.5 19.7 V G96 – Mt. Lemmon Survey MPS 264519
2008 11 08.27757 03 24 06.15 +13 41 33.0 19.6 V G96 – Mt. Lemmon Survey MPS 264519
2011 06 03.29226 16 32 57.73 -17 38 10.7 19.9 V G96 – Mt. Lemmon Survey MPS 383963
2011 06 03.29860 16 32 57.26 -17 38 09.1 19.1 V G96 – Mt. Lemmon Survey MPS 383963
2011 06 03.30499 16 32 56.90 -17 38 09.2 19.8 V G96 – Mt. Lemmon Survey MPS 383963
2011 06 03.31137 16 32 56.50 -17 38 08.2 20.0 V G96 – Mt. Lemmon Survey MPS 383963
2011 06 25.22915 16 12 32.14 -17 09 19.2 20.7 V G96 – Mt. Lemmon Survey MPS 385764
2011 06 25.23675 16 12 31.78 -17 09 19.3 20.3 V G96 – Mt. Lemmon Survey MPS 385764
2011 06 25.24429 16 12 31.42 -17 09 18.3 20.6 V G96 – Mt. Lemmon Survey MPS 385764
2011 06 25.25193 16 12 31.10 -17 09 18.2 20.8 V G96 – Mt. Lemmon Survey MPS 385764
2012 11 25.35891 05 24 30.886 +19 07 21.99 20.6 i F51 – Pan-STARRS 1, Haleakala MPS 444758
2012 11 25.37086 05 24 30.148 +19 07 21.64 20.5 i F51 – Pan-STARRS 1, Haleakala MPS 444758
2012 12 11.25447 05 07 20.06 +18 55 08.7 20.1 V G96 – Mt. Lemmon Survey MPS 447612
2012 12 11.26142 05 07 19.59 +18 55 08.5 20.0 V G96 – Mt. Lemmon Survey MPS 447612
2012 12 11.26845 05 07 19.09 +18 55 08.4 19.9 V G96 – Mt. Lemmon Survey MPS 447612
2012 12 11.27551 05 07 18.62 +18 55 08.2 19.8 V G96 – Mt. Lemmon Survey MPS 447612
2013 01 03.15813 04 46 15.56 +18 52 03.0 21.1 V G96 – Mt. Lemmon Survey MPS 449526
2013 01 03.16455 04 46 15.31 +18 52 03.4 20.9 V G96 – Mt. Lemmon Survey MPS 449526
2013 01 03.17093 04 46 15.06 +18 52 03.9 20.9 V G96 – Mt. Lemmon Survey MPS 449526
2013 01 03.17728 04 46 14.77 +18 52 04.2 21.8 V G96 – Mt. Lemmon Survey MPS 449526
2014 02 28.41155 11 41 24.631 +04 01 51.76 21.5 w F51 – Pan-STARRS 1, Haleakala MPS 505212
2014 02 28.43641 11 41 23.392 +04 02 01.19 21.7 w F51 – Pan-STARRS 1, Haleakala MPS 505212
2014 02 28.44882 11 41 22.764 +04 02 05.71 21.8 w F51 – Pan-STARRS 1, Haleakala MPS 505212
2018 03 17.43976 12 34 14.572 -00 44 37.45 21.6 w F51 – Pan-STARRS 1, Haleakala MPS 878280
2018 03 17.45376 12 34 13.850 -00 44 32.31 21.7 w F51 – Pan-STARRS 1, Haleakala MPS 878280
2018 03 17.46775 12 34 13.126 -00 44 26.79 21.7 w F51 – Pan-STARRS 1, Haleakala MPS 878280
2018 03 17.48177 12 34 12.394 -00 44 21.49 21.8 w F51 – Pan-STARRS 1, Haleakala MPS 878280
2018 03 18.40715 12 33 26.017 -00 38 32.87 21.6 w F51 – Pan-STARRS 1, Haleakala MPS 878280
2018 03 18.41896 12 33 25.410 -00 38 28.43 21.7 w F51 – Pan-STARRS 1, Haleakala MPS 878280
2018 03 18.43083 12 33 24.788 -00 38 24.25 21.6 w F51 – Pan-STARRS 1, Haleakala MPS 878280
2018 03 18.44268 12 33 24.175 -00 38 19.51 21.6 w F51 – Pan-STARRS 1, Haleakala MPS 878280
2018 03 19.40860 12 32 35.143 -00 32 13.52 21.5 w F51 – Pan-STARRS 1, Haleakala MPS 878280
2018 03 19.42157 12 32 34.467 -00 32 08.66 21.4 w F51 – Pan-STARRS 1, Haleakala MPS 878280
2018 03 19.43464 12 32 33.770 -00 32 03.74 21.6 w F51 – Pan-STARRS 1, Haleakala MPS 878280
2018 04 13.34876 12 11 06.679 +01 58 49.40 21.5 w F51 – Pan-STARRS 1, Haleakala MPS 883960
2018 04 13.36127 12 11 06.070 +01 58 53.14 21.5 w F51 – Pan-STARRS 1, Haleakala MPS 883960
2018 04 13.37384 12 11 05.464 +01 58 57.02 21.7 w F51 – Pan-STARRS 1, Haleakala MPS 883960
2018 04 13.38643 12 11 04.868 +01 59 00.92 22.1 w F51 – Pan-STARRS 1, Haleakala MPS 883960
2019 06 01.56254 21 06 14.075 -14 33 02.98 21.4 w F52 – Pan-STARRS 2, Haleakala MPS 1010473
2019 06 01.57344 21 06 14.529 -14 33 01.51 21.3 w F52 – Pan-STARRS 2, Haleakala MPS 1010473
2019 06 01.59546 21 06 15.451 -14 32 57.56 21.4 w F52 – Pan-STARRS 2, Haleakala MPS 1010473
2019 07 04.50666 21 15 16.994 -14 14 05.78 20.4 w F51 – Pan-STARRS 1, Haleakala MPS 1010473
2019 07 04.50824 21 15 16.970 -14 14 05.97 20.3 w F51 – Pan-STARRS 1, Haleakala MPS 1010473
2019 07 04.51844 21 15 16.800 -14 14 07.25 20.4 w F51 – Pan-STARRS 1, Haleakala MPS 1010473
2019 07 04.51999 21 15 16.778 -14 14 07.52 20.3 w F51 – Pan-STARRS 1, Haleakala MPS 1010473
2019 07 04.53017 21 15 16.609 -14 14 08.77 20.4 w F51 – Pan-STARRS 1, Haleakala MPS 1010473
2019 07 04.53170 21 15 16.583 -14 14 08.94 20.3 w F51 – Pan-STARRS 1, Haleakala MPS 1010473
